Weather History for Eveleth, MN

Change the Weather History Date:

Sunday, November 4, 2012

  Actual Average Record
Temperature  
Mean Temperature 26 °F -  
Max Temperature 35 °F 39 °F 68 °F (2008)
Min Temperature 17 °F 25 °F 3 °F (1991)
Degree Days  
Heating Degree Days 39    
Moisture  
Dew Point 22 °F    
Average Humidity 81    
Maximum Humidity 100    
Minimum Humidity 60    
Precipitation  
Precipitation 0.00 in - - ()
Sea Level Pressure  
Sea Level Pressure 30.24 in    
Wind  
Wind Speed 1 mph (East)    
Max Wind Speed 8 mph    
Max Gust Speed -    
Visibility 10 miles    
Events      
Averages and records for this station are not official NWS values.
T = Trace of Precipitation, MM = Missing Value Source: NWS Daily Summary

Daily Weather History Graph

Daily Weather History Graph

Search for Another Location

Airport:

Trip Planner

Search our weather history database for the weather conditions in past years. The results will help you decide how hot, cold, wet, or windy it might be!

Date:

Astronomy

Nov. 04, 2012 Rise Set
Actual Time 6:58 AM CST 4:47 PM CST
Civil Twilight 6:26 AM CST 5:19 PM CST
Nautical Twilight 5:49 AM CST 5:56 PM CST
Astronomical Twilight 5:14 AM CST 6:32 PM CST
Moon 9:22 PM CST (11/4) 11:47 AM CST (11/4)
Length of Visible Light 10h 53m
Length of Day
9h 48m
Waning Gibbous, 72% of the Moon is Illuminated
Nov 4
Waning Gibbous
Nov 6
Last Quarter
Nov 13
New
Nov 20
First Quarter
Nov 28
Full

Hourly Weather History & Observations

Time (CST) Temp. Windchill Dew Point Humidity Pressure Visibility Wind Dir Wind Speed Gust Speed Precip Events Conditions
12:09 AM 23.0 °F - 21.2 °F 93% 30.24 in 10.0 mi Calm Calm - N/A   Mostly Cloudy
12:29 AM 21.2 °F - 21.2 °F 100% 30.24 in 10.0 mi Calm Calm - N/A   Scattered Clouds
12:49 AM 21.2 °F 16.4 °F 21.2 °F 100% 30.24 in 10.0 mi NNE 3.5 mph - N/A   Clear
1:09 AM 21.2 °F - 21.2 °F 100% 30.24 in 10.0 mi Calm Calm - N/A   Clear
1:30 AM 19.4 °F 14.3 °F 17.6 °F 93% 30.24 in 10.0 mi NNE 3.5 mph - N/A   Clear
1:49 AM 21.2 °F - 21.2 °F 100% 30.24 in 10.0 mi Calm Calm - N/A   Clear
1:09 AM 19.4 °F - 17.6 °F 93% 30.24 in 10.0 mi Calm Calm - N/A   Clear
1:30 AM 19.4 °F - 17.6 °F 93% 30.25 in 10.0 mi Calm Calm - N/A   Clear
1:49 AM 19.4 °F - 17.6 °F 93% 30.25 in 10.0 mi Calm Calm - N/A   Clear
2:09 AM 19.4 °F - 17.6 °F 93% 30.25 in 10.0 mi Calm Calm - N/A   Clear
2:30 AM 19.4 °F - 19.4 °F 100% 30.25 in 7.0 mi Calm Calm - N/A   Clear
2:49 AM 17.6 °F - 14.0 °F 86% 30.25 in 10.0 mi Calm Calm - N/A   Clear
3:10 AM 17.6 °F - 14.0 °F 86% 30.25 in 10.0 mi Calm Calm - N/A   Clear
3:29 AM 17.6 °F - 15.8 °F 93% 30.25 in 10.0 mi Calm Calm - N/A   Scattered Clouds
3:49 AM 17.6 °F - 15.8 °F 93% 30.25 in 10.0 mi Calm Calm - N/A   Overcast
4:10 AM 17.6 °F - 15.8 °F 93% 30.25 in 10.0 mi Calm Calm - N/A   Overcast
4:29 AM 19.4 °F - 17.6 °F 93% 30.25 in 10.0 mi Calm Calm - N/A   Overcast
4:49 AM 21.2 °F - 19.4 °F 93% 30.25 in 10.0 mi Calm Calm - N/A   Overcast
5:10 AM 21.2 °F - 19.4 °F 93% 30.25 in 10.0 mi Calm Calm - N/A   Overcast
5:29 AM 23.0 °F - 21.2 °F 93% 30.25 in 10.0 mi Calm Calm - N/A   Overcast
5:49 AM 23.0 °F - 21.2 °F 93% 30.25 in 10.0 mi Calm Calm - N/A   Overcast
6:10 AM 24.8 °F - 23.0 °F 93% 30.25 in 10.0 mi Calm Calm - N/A   Overcast
6:29 AM 23.0 °F - 23.0 °F 100% 30.26 in 10.0 mi Calm Calm - N/A   Overcast
6:49 AM 24.8 °F - 23.0 °F 93% 30.26 in 10.0 mi Calm Calm - N/A   Overcast
7:10 AM 26.6 °F - 23.0 °F 86% 30.25 in 10.0 mi Calm Calm - N/A   Overcast
7:29 AM 26.6 °F - 23.0 °F 86% 30.26 in 10.0 mi Calm Calm - N/A   Overcast
7:49 AM 26.6 °F - 24.8 °F 93% 30.26 in 10.0 mi Calm Calm - N/A   Overcast
8:10 AM 26.6 °F - 24.8 °F 93% 30.26 in 10.0 mi Calm Calm - N/A   Overcast
8:29 AM 28.4 °F 24.6 °F 26.6 °F 93% 30.26 in 10.0 mi ENE 3.5 mph - N/A   Overcast
8:49 AM 30.2 °F 26.7 °F 26.6 °F 86% 30.26 in 10.0 mi East 3.5 mph - N/A   Overcast
9:09 AM 30.2 °F 25.4 °F 26.6 °F 86% 30.25 in 10.0 mi ENE 4.6 mph - N/A   Overcast
9:29 AM 30.2 °F 25.4 °F 24.8 °F 80% 30.25 in 10.0 mi ESE 4.6 mph - N/A   Overcast
9:50 AM 30.2 °F 23.4 °F 23.0 °F 75% 30.25 in 10.0 mi East 6.9 mph - N/A   Overcast
10:09 AM 32.0 °F - 24.8 °F 75% 30.25 in 10.0 mi Calm Calm - N/A   Overcast
10:29 AM 32.0 °F 27.5 °F 23.0 °F 69% 30.25 in 10.0 mi ESE 4.6 mph - N/A   Overcast
10:50 AM 32.0 °F 28.7 °F 23.0 °F 69% 30.25 in 10.0 mi ESE 3.5 mph - N/A   Overcast
11:09 AM 32.0 °F 27.5 °F 23.0 °F 69% 30.25 in 10.0 mi East 4.6 mph - N/A   Overcast
11:29 AM 32.0 °F 28.7 °F 21.2 °F 64% 30.24 in 10.0 mi ESE 3.5 mph - N/A   Overcast
11:50 AM 32.0 °F 24.8 °F 21.2 °F 64% 30.24 in 10.0 mi ENE 8.1 mph - N/A   Overcast
12:09 PM 32.0 °F - 21.2 °F 64% 30.24 in 10.0 mi Calm Calm - N/A   Mostly Cloudy
12:29 PM - - - N/A% 30.23 in 10.0 mi NE 4.6 mph - N/A   Overcast
12:49 PM 32.0 °F 27.5 °F 21.2 °F 64% 30.22 in 10.0 mi East 4.6 mph - N/A   Overcast
1:09 PM 33.8 °F 29.6 °F 23.0 °F 65% 30.22 in 10.0 mi SE 4.6 mph - N/A   Overcast
1:30 PM 32.0 °F 27.5 °F 23.0 °F 69% 30.21 in 10.0 mi East 4.6 mph - N/A   Mostly Cloudy
1:49 PM 35.6 °F 31.7 °F 23.0 °F 60% 30.21 in 10.0 mi East 4.6 mph - N/A   Mostly Cloudy
2:10 PM 35.6 °F - 23.0 °F 60% 30.21 in 10.0 mi Calm Calm - N/A   Overcast
2:29 PM 35.6 °F 30.7 °F 23.0 °F 60% 30.20 in 10.0 mi East 5.8 mph - N/A   Mostly Cloudy
2:50 PM 33.8 °F 30.8 °F 23.0 °F 65% 30.21 in 10.0 mi East 3.5 mph - N/A   Clear
3:10 PM 32.0 °F 28.7 °F 23.0 °F 69% 30.21 in 10.0 mi ESE 3.5 mph - N/A   Clear
3:29 PM 33.8 °F - 23.0 °F 65% 30.21 in 10.0 mi Calm Calm - N/A   Clear
3:50 PM 33.8 °F 29.6 °F 23.0 °F 65% 30.21 in 10.0 mi NE 4.6 mph - N/A   Clear
4:10 PM 33.8 °F 29.6 °F 23.0 °F 65% 30.21 in 10.0 mi ENE 4.6 mph - N/A   Scattered Clouds
4:29 PM 32.0 °F 28.7 °F 23.0 °F 69% 30.21 in 10.0 mi East 3.5 mph - N/A   Mostly Cloudy
4:49 PM 32.0 °F 28.7 °F 21.2 °F 64% 30.21 in 10.0 mi ENE 3.5 mph - N/A   Overcast
5:10 PM 32.0 °F 28.7 °F 23.0 °F 69% 30.22 in 10.0 mi ENE 3.5 mph - N/A   Overcast
5:29 PM 32.0 °F 28.7 °F 23.0 °F 69% 30.22 in 10.0 mi ENE 3.5 mph - N/A   Mostly Cloudy
5:49 PM 30.2 °F - 23.0 °F 75% 30.22 in 10.0 mi Calm Calm - N/A   Scattered Clouds
6:10 PM 28.4 °F - 23.0 °F 80% 30.23 in 10.0 mi Calm Calm - N/A   Mostly Cloudy
6:29 PM 30.2 °F 26.7 °F 23.0 °F 75% 30.23 in 10.0 mi ENE 3.5 mph - N/A   Overcast
6:49 PM 30.2 °F - 23.0 °F 75% 30.23 in 10.0 mi Calm Calm - N/A   Mostly Cloudy
7:09 PM 26.6 °F - 21.2 °F 80% 30.24 in 10.0 mi Calm Calm - N/A   Scattered Clouds
7:29 PM 30.2 °F 26.7 °F 23.0 °F 75% 30.24 in 10.0 mi ENE 3.5 mph - N/A   Mostly Cloudy
7:49 PM 30.2 °F - 23.0 °F 75% 30.23 in 10.0 mi Calm Calm - N/A   Overcast
8:09 PM 30.2 °F 26.7 °F 23.0 °F 75% 30.23 in 10.0 mi ENE 3.5 mph - N/A   Overcast
8:30 PM 30.2 °F - 23.0 °F 75% 30.24 in 10.0 mi Calm Calm - N/A   Overcast
8:49 PM 32.0 °F - 24.8 °F 75% 30.24 in 10.0 mi Calm Calm - N/A   Overcast
9:09 PM 32.0 °F 28.7 °F 26.6 °F 80% 30.24 in 10.0 mi East 3.5 mph - N/A   Overcast
9:29 PM 32.0 °F 28.7 °F 26.6 °F 80% 30.23 in 10.0 mi East 3.5 mph - N/A   Overcast
9:50 PM 30.2 °F - 23.0 °F 75% 30.23 in 10.0 mi Calm Calm - N/A   Overcast
10:09 PM 32.0 °F - 26.6 °F 80% 30.24 in 10.0 mi Calm Calm - N/A   Overcast
10:29 PM 30.2 °F - 24.8 °F 80% 30.23 in 10.0 mi Calm Calm - N/A   Overcast
10:50 PM 30.2 °F - 23.0 °F 75% 30.24 in 10.0 mi Calm Calm - N/A   Overcast